Kosmos-2147

operational
NORAD ID: 21303 Int'l Des: 1991-033 Owner: UNKSR Country: SU
LEOCIRCULARPOLAR

About Kosmos-2147

Description loading...

Live Position

Loading 3D Globe...

Upcoming Passes

Altitude History

Altitude vs Time

uPlot chart will show altitude changes over time

Two-Line Element Set

1 21303U 91033E 26063.17097284 .00000031 00000-0 11045-3 0 9998
2 21303 82.5722 342.7095 0017917 240.7856 286.7246 12.65162533606869
Epoch: Mar 4, 2026 • Age: 9 hours

Current Status

Altitude 1416.0 km
Velocity 7.15 km/s
Sub-Earth Point 24.94°N, 48.2°E
Launch Date May 16, 1991
Age 34.8 years
Type other

Technical Details

Classification Payload
Mass 225.00 kg
Dry Mass 225.00 kg
Total Mass 225.00 kg
Length 1.60 m
Diameter 0.80 m
Span 7.00 m
Shape Cyl + Ant
Manufacturer NPOPM
Bus Type Strela-3
Phase Status In Orbit
Owner/State UNKSR/SU

Large Constellations

Loading constellations...